TimeEST,TemperatureF,Dew PointF,Humidity,Sea Level PressureIn,VisibilityMPH,Wind Direction,Wind SpeedMPH,Gust SpeedMPH,PrecipitationIn,Events,Conditions,WindDirDegrees,DateUTC
12:53 AM,44.1,41.0,89,29.88,10.0,NE,4.6,-,0.04,Rain,Light Rain,50,2014-02-03 05:53:00
1:00 AM,44.1,41.0,89,29.89,8.0,NE,4.6,-,0.01,Rain,Light Rain,50,2014-02-03 06:00:00
1:53 AM,44.1,41.0,89,29.85,6.0,North,3.5,-,0.09,Rain,Rain,10,2014-02-03 06:53:00
2:22 AM,44.1,42.1,93,29.86,2.5,Calm,Calm,-,0.09,Rain,Heavy Rain,0,2014-02-03 07:22:00
2:29 AM,44.1,42.1,93,29.85,3.0,Calm,Calm,-,0.12,Rain,Rain,0,2014-02-03 07:29:00
2:53 AM,44.1,41.0,89,29.80,3.0,NE,4.6,-,0.20,Rain,Heavy Rain,50,2014-02-03 07:53:00
3:09 AM,44.1,42.1,93,29.85,4.0,West,6.9,-,0.05,Rain,Rain,280,2014-02-03 08:09:00
3:53 AM,45.0,42.1,90,29.78,4.0,NE,3.5,-,0.19,Rain,Rain,40,2014-02-03 08:53:00
4:31 AM,42.1,37.9,85,29.88,2.5,NW,10.4,21.9,0.19,Rain,Heavy Rain,320,2014-02-03 09:31:00
4:40 AM,42.1,37.9,85,29.87,2.5,North,8.1,17.3,0.26,Rain,Heavy Rain,10,2014-02-03 09:40:00
4:48 AM,42.8,37.4,81,29.87,3.0,North,5.8,-,0.30,Rain,Heavy Rain,360,2014-02-03 09:48:00
4:53 AM,42.1,37.9,85,29.85,4.0,NNE,3.5,-,0.32,Rain,Rain,20,2014-02-03 09:53:00
5:44 AM,41.0,37.9,89,29.94,6.0,WSW,9.2,-,0.08,Rain,Rain,250,2014-02-03 10:44:00
5:53 AM,41.0,37.9,89,29.91,5.0,West,6.9,-,0.10,Rain,Rain,260,2014-02-03 10:53:00
6:00 AM,41.0,37.9,89,29.92,4.0,SW,3.5,-,0.02,Rain,Rain,220,2014-02-03 11:00:00
6:53 AM,41.0,37.9,89,29.90,2.5,Calm,Calm,-,0.17,Rain,Rain,0,2014-02-03 11:53:00
7:53 AM,41.0,37.9,89,29.89,2.0,NW,13.8,-,0.04,Rain,Light Rain,310,2014-02-03 12:53:00
8:00 AM,41.0,39.0,93,29.92,2.5,NW,15.0,-,0.00,Rain,Light Rain,310,2014-02-03 13:00:00
8:08 AM,41.0,39.0,93,29.93,2.5,NW,15.0,-,0.00,,Overcast,320,2014-02-03 13:08:00
8:16 AM,41.0,37.9,89,29.94,3.0,NW,13.8,-,0.01,,Overcast,310,2014-02-03 13:16:00
8:37 AM,41.0,37.0,86,29.98,3.0,NNW,13.8,-,0.01,,Overcast,340,2014-02-03 13:37:00
8:53 AM,41.0,37.0,86,29.98,10.0,NNW,12.7,18.4,0.01,,Overcast,340,2014-02-03 13:53:00
9:48 AM,37.4,33.8,87,30.11,2.0,North,9.2,-,0.01,Rain,Light Rain,10,2014-02-03 14:48:00
9:53 AM,37.9,33.1,83,30.10,2.0,North,9.2,-,0.01,Rain,Light Rain,10,2014-02-03 14:53:00
10:47 AM,37.4,32.0,81,30.15,3.0,North,10.4,-,0.01,,Haze,360,2014-02-03 15:47:00
10:53 AM,37.0,32.0,82,30.14,5.0,North,12.7,-,0.01,,Haze,360,2014-02-03 15:53:00
11:53 AM,39.0,34.0,82,30.13,10.0,NNE,3.5,-,N/A,,Overcast,20,2014-02-03 16:53:00
12:53 PM,39.9,33.1,77,30.12,10.0,Calm,Calm,-,N/A,,Overcast,0,2014-02-03 17:53:00
1:53 PM,41.0,33.1,73,30.12,10.0,North,4.6,-,N/A,,Overcast,350,2014-02-03 18:53:00
2:53 PM,42.1,33.1,70,30.12,10.0,North,3.5,-,N/A,,Mostly Cloudy,10,2014-02-03 19:53:00
3:53 PM,41.0,32.0,70,30.15,10.0,NNW,9.2,-,N/A,,Overcast,340,2014-02-03 20:53:00
4:53 PM,39.9,30.9,70,30.17,10.0,North,5.8,-,N/A,,Overcast,350,2014-02-03 21:53:00
5:53 PM,39.0,30.9,73,30.18,10.0,NNE,8.1,-,N/A,,Overcast,20,2014-02-03 22:53:00
6:53 PM,37.0,30.0,76,30.19,10.0,North,5.8,-,N/A,,Overcast,10,2014-02-03 23:53:00
7:53 PM,37.0,30.0,76,30.21,10.0,NNE,3.5,-,N/A,,Overcast,20,2014-02-04 00:53:00
8:53 PM,37.0,30.0,76,30.21,10.0,North,4.6,-,N/A,,Overcast,10,2014-02-04 01:53:00
9:53 PM,36.0,30.0,79,30.22,10.0,Calm,Calm,-,N/A,,Overcast,0,2014-02-04 02:53:00
10:53 PM,35.1,28.9,78,30.20,10.0,Calm,Calm,-,N/A,,Overcast,0,2014-02-04 03:53:00
11:30 PM,34.0,28.9,82,30.20,9.0,NNE,3.5,-,N/A,,Mostly Cloudy,30,2014-02-04 04:30:00
11:53 PM,34.0,30.0,85,30.21,10.0,North,4.6,-,N/A,,Mostly Cloudy,10,2014-02-04 04:53:00